Regional Weather Roundup
Issued by NWS Raleigh/Durham, NC

Home | Current Version | Previous Version | Text Only | Print | Product List | Glossary On
Versions: 1 2 3 4 5 6 7 8 9 10 11 12 13 14 15 16 17 18 19 20 21 22 23 24 25 26 27 28 29 30 31 32 33 34 35 36 37 38 39 40 41 42 43 44 45 46 47 48
577
ASUS42 KRAH 071510
RWRRAH
NORTH CAROLINA WEATHER ROUNDUP
NATIONAL WEATHER SERVICE RALEIGH NC
1000 AM EST SUN FEB 07 2016

NOTE: "FAIR" INDICATES FEW OR NO CLOUDS BELOW 12,000 FEET WITH NO
SIGNIFICANT WEATHER AND/OR OBSTRUCTIONS TO VISIBILITY.

NCZ001-053-055-056-065-067-071600-
WESTERN NORTH CAROLINA

CITY           SKY/WX    TMP DP  RH WIND       PRES   REMARKS
ASHEVILLE      SUNNY     37  18  46 N16G25    30.10S WCI  28
JEFFERSON      SUNNY     34  16  47 N7        30.05F WCI  28
MORGANTON      CLOUDY    34  25  69 CALM      30.14F
HICKORY        CLOUDY    40  25  55 NW5       30.08F
RUTHERFORDTON  SUNNY     42  22  45 N6        30.10S
MOUNT AIRY     MOSUNNY   43  25  49 N5        30.11S
BOONE          CLOUDY    32  18  55 W12       30.06S WCI  23
$$

NCZ021-022-025-041-071-084-088-071600-
CENTRAL NORTH CAROLINA

CITY           SKY/WX    TMP DP  RH WIND       PRES   REMARKS
CHARLOTTE      PTSUNNY   44  20  38 N12       30.08S
GREENSBORO     CLOUDY    38  19  46 N12       30.07F WCI  30
WINSTON-SALEM  MOSUNNY   38  20  48 N10       30.09F WCI  31
RALEIGH-DURHAM CLOUDY    38  23  55 NE13      30.07F WCI  30
FORT BRAGG     CLOUDY    37  30  76 NE10G20   30.02F WCI  29
FAYETTEVILLE   LGT RAIN  36  32  85 NE18G25   30.02F FOG     WCI  26
BURLINGTON     CLOUDY    38  21  50 N10       30.07F WCI  31
LAURINBURG     CLOUDY    39  29  67 NE15      30.03S WCI  31
$$

NCZ011-015-027-028-043-044-047-080-103-071600-
NORTHEASTERN NORTH CAROLINA

CITY           SKY/WX    TMP DP  RH WIND       PRES   REMARKS
ROCKY MT-WILSO LGT RAIN  34  30  85 N10       30.07F FOG     WCI  26
GREENVILLE     LGT RAIN  36  34  93 N13       30.06F WCI  27
WASHINGTON     LGT RAIN  36  32  87 N12       30.02F WCI  27
ELIZABETH CITY CLOUDY    43  32  65 N21G29    30.04F
MANTEO         DRIZZLE   45  41  87 NE16G25   30.01F
CAPE HATTERAS  RAIN      47  45  93 NE16G29   29.91F
$$

NCZ078-087-090-091-093-098-101-071600-
SOUTHEASTERN NORTH CAROLINA

CITY           SKY/WX    TMP DP  RH WIND       PRES   REMARKS
LUMBERTON      RAIN      36  32  85 N17G33    29.99F FOG     WCI  26
GOLDSBORO      LGT RAIN  34  34 100 N15G21    30.02F WCI  24
KINSTON        RAIN      36  32  87 N15       30.03F WCI  26
KENANSVILLE    MIX PCPN  34  33  96 N17G23    30.02F WCI  23
NEW BERN       LGT RAIN  37  32  82 N13       30.00F WCI  29
CHERRY POINT   LGT RAIN  39  34  82 N23       29.96F WCI  28
BEAUFORT       RAIN      40  37  89 N20G30    29.92F FOG     WCI  30
JACKSONVILLE   RAIN      35  31  85 N21       29.93F FOG     WCI  24
WILMINGTON     RAIN      36  32  85 N20G28    29.89F FOG     WCI  25
$$





USA.gov is the U.S. government's official web portal to all federal, state and local government web resources and services.